SL-8 R/B, 15006

Orbit data source: Space-Track

SL-8 R/B, 15006 is space debris in LEO originally from a launch on Mon, 28 May 1984 UTC launched from the Plesetsk Missile And Space Complex (PKMTR). Debris objects in space refer to the collection of defunct objects orbiting the Earth. Examples of debris include non-operational satellites, rocket bodies, and fragments generated from explosions, collisions, or faulty payload assembly.

Loading next visibility...
Identifier
15006, 1984-052J
Orbit
LEO
Last TLE update
13 hours ago
Origin
Manufacturer
Omsk Av. Zav.
Mission
Spacecraft
Bus & Motor
S3, Unknown motor
Mass
1,434 kg wet, 1,434 kg dry
Launch date (UTC)
1984-05-28 (41 years ago)
Launch vehicle
Unknown
Launch site
Plesetsk Missile And Space Complex (PKMTR)
Object type
Payload
Rocket body
Debris
Shape & HBR
Cyl, 6.57 m
Radar Cross Section
14.646 m², Large (>1 m²)

Expand to show TLE details & history

TLE from 13 hours ago
0 SL-8 R/B
1 15006U 84052J   25183.57811946 -.00000036  00000-0 -19929-3 0  9995
2 15006  74.0137 297.0849 0132449  62.7611 309.2015 12.23741278835868
Epoch: 2025-07-02T13:52Z
TLE epoch observation values (Epoch: 2025-07-02T13:52:29.521Z)
Latitude
10.31046°
Longitude
171.07752°
Altitude
1,512.144 km
Speed
7.139 km/s
True Right ascension
20h 00m 13s
True Declination
10° 15' 21"
Sunlit
Object was in full shadow at epoch
Visualization orbit readout
Latitude
15.574°
Longitude
-17.11708°
Altitude
1,598.098 km
Speed
7.063 km/s
Apparent Right ascension
05h 31m 17s
Apparent Declination
-11° 05' 45"
Sunlit
Object is in daylight
Visualization observer readout
Local Sidereal Time
14:12:55
Azimuth
289.223° WNW
Elevation
-37.688°
Doppler factor
1
Orbital elements
Apogee altitude
1,679.481 km
Perigee altitude
1,468.827 km
Semi-major axis
7,952.291 km
Eccentricity
0.01324
Inclination
74.0137°
RAAN
297.0849°
Arg. of periapsis
62.7611°
True anomaly
Unknown
Mean anomaly
309.2015°
Eccentric anomaly
Unknown
Mean motion
3.06059 °/min
Orbital period
117.62 mins
BSTAR
-0.00019929
Loading maneuver chart data...
Loading SW <> Apogee altitude chart data...
Loading historical data...
Loading historical data...
Loading historical data...
Loading historical data...
Loading historical data...
Loading historical data...
Loading historical data...

SL-8 R/B Visibility forecast

Observer location: undefined°, undefined°

Span
Click to sort rows by Start time (UTC) header in descending order
Start Az.
Max El. time (UTC)
Max El. Az.
Max El.
End time (UTC)
End Az.
14 mins2025-07-03 07:33:54.122Z154.682° SSE2025-07-03 07:40:54.122Z96.159° ESE29.491°2025-07-03 07:47:54.122Z37.68° NE
15 mins2025-07-03 09:33:54.122Z225.681° WSW2025-07-03 09:40:54.122Z301.899° NW37.821°2025-07-03 09:48:54.122Z10.474° NNE
15 mins2025-07-03 17:52:54.122Z356.258° N2025-07-03 17:59:54.122Z64.575° ENE35.252°2025-07-03 18:07:54.122Z131.744° SE
15 mins2025-07-03 19:52:54.122Z323.874° NNW2025-07-03 19:59:54.122Z259.819° W33.893°2025-07-03 20:07:54.122Z196.224° SSW
|